Regional Weather Roundup
Issued by NWS Midland/Odessa, TX

Skip options and go directly to product.
Home | Oldest Version | Previous Version | Current Version | All | Graphics & Text | Save Text | Print | Product List | Glossary On

Skip product version selection by date and time.   
392
ASUS44 KMAF 230810
RWRMAF
MIDLAND AREA WEATHER ROUNDUP
NATIONAL WEATHER SERVICE MIDLAND TX
300 AM CDT THU OCT 23 2014

...IN SOUTHWEST TEXAS AND SOUTHEAST NEW MEXICO...

CITY           SKY/WX    TMP DP  RH WIND       PRES   REMARKS
ALPINE         CLEAR     57  56  95 SW8       30.24S
ANDREWS        FAIR      56  55  97 S5        30.13S
ARTESIA        NOT AVBL
BIG SPRING     CLEAR     59  55  89 SE5       30.15S
CARLSBAD       MOCLDY    58  57  97 S6        30.11S FOG
DRYDEN           N/A     62  60  93 CALM      30.12S
FORT STOCKTON  CLEAR     59  57  93 S12       30.11S
GUAD PASS      CLEAR     57  53  86 SW12      30.23S
HOBBS          CLOUDY    55  55 100 S8        30.15S FOG
MARFA          CLOUDY    57  57 100 S3        30.23S
MIDLAND AIRPK  CLEAR     57  54  88 S3        30.13S
MIDLAND INTL   CLEAR     56  53  90 SE5       30.12S
ODESSA         CLEAR     57  54  89 S5        30.12F
PECOS          CLEAR     59  57  93 NE3       30.10S
PRESIDIO       FAIR      65  60  84 CALM      30.13S
SEMINOLE       MOCLDY    54  53  97 SW5       30.15S
SNYDER         CLOUDY    58  56  92 CALM      30.14S
WINK           CLEAR     58  57  97 E6        30.10S
$$
...OTHER STATIONS IN TEXAS...

CITY           SKY/WX    TMP DP  RH WIND       PRES   REMARKS
ABILENE        CLOUDY    60  55  83 S5        30.13R
AMARILLO       MOCLDY    60  58  92 S14       30.12S
AUSTIN         CLOUDY    66  61  84 SW3       30.09S
BROWNSVILLE    CLEAR     70  67  90 CALM      30.01S
CORPUS CHRISTI PTCLDY    70  63  78 CALM      30.04S
DALLAS FTW     CLOUDY    65  55  70 SE6       30.11S
DEL RIO        CLOUDY    65  64  97 CALM      30.09F
EL PASO        CLEAR     61  54  77 SE5       30.14R
HOUSTON INT    MOCLDY    62  56  80 N5        30.09S
LUBBOCK        CLEAR     55  53  93 S6        30.14S FOG
SAN ANGELO     CLEAR     58  54  86 W3        30.12S
SAN ANTONIO    CLOUDY    71  63  75 SE5       30.10S
WACO           LGT RAIN  66  59  78 SE3       30.10F
WICHITA FALLS  NOT AVBL
$$
...OTHER LOCATIONS IN NEW MEXICO...

CITY           SKY/WX    TMP DP  RH WIND       PRES   REMARKS
ALAMAGORDO     NOT AVBL
ALBUQUERQUE    CLEAR     56  44  64 SE7       30.21R
CANNON AFB     FOG       56  56  98 SW5       30.15S VSB 1/2
CLOVIS         CLOUDY    59  55  88 S13       30.17S
HOLLOMAN AFB   CLEAR     55  49  81 CALM      30.15R
ROSWELL        FOG       59  58  96 S7        30.12R VSB 1/4
RUIDOSO        CLEAR     48  41  76 W8        30.28F
SANTA FE       CLEAR     49  35  58 N6        30.24R
TRUTH OR CONSE CLEAR     56  50  80 W6        30.18R
TUCUMCARI      CLEAR     60  54  80 SW13      30.09F
$$

USA.gov is the U.S. government's official web portal to all federal, state and local government web resources and services.